Preview of NWS' New Version of Forecast
This preview is not operational and should not be used for support decisions.

Regional Weather Roundup (RWR)

Issued by National Weather Service (NWS)

                            
000
ASUS44 KMEG 201700
RWRTN 
TENNESSEE HOURLY STATE WEATHER ROUNDUP
NATIONAL WEATHER SERVICE MEMPHIS TN
1200 PM CDT THU JUN 20 2019

TNZ002-004-019-021-049-052-054-088>092-201800-
WEST TENNESSEE
  
CITY           SKY/WX    TMP DP  RH WIND       PRES   REMARKS
MEMPHIS INTL   PTSUNNY   81  70  69 SW9       29.85R                  
NWS MEMPHIS      N/A     81 N/A N/A MISG        N/A                   
JACKSON        FAIR      80  71  74 W10       29.84R                  
DYERSBURG      PTSUNNY   82  70  66 NW10      29.82R                  
$$

TNZ008-025-027-028-033-062-065-066-201800-
NORTH MIDDLE TENNESSEE
  
CITY           SKY/WX    TMP DP  RH WIND       PRES   REMARKS
NASHVILLE      PTSUNNY   78  67  68 W8        29.80S                  
CLARKSVILLE    PTSUNNY   77  68  73 W9        29.78R                  
SMYRNA         PTSUNNY   79  70  74 W10G17    29.80S                  
CROSSVILLE     PTSUNNY   69  65  86 S5        29.85F                  
$$

TNZ061-075-076-078-094-096-097-201800-
SOUTH MIDDLE TENNESSEE
  
CITY           SKY/WX    TMP DP  RH WIND       PRES   REMARKS
$$

TNZ017-018-042-046-047-201800-
NORTHEAST TENNESSEE
  
CITY           SKY/WX    TMP DP  RH WIND       PRES   REMARKS
TRI CITIES     CLOUDY    73  67  81 SW9       29.85R                  
$$

TNZ012-013-036-069-073-074-201800-
CENTRAL EAST TENNESSEE
  
CITY           SKY/WX    TMP DP  RH WIND       PRES   REMARKS
KNOXVILLE      CLOUDY    74  66  76 SW13      29.83F                  
OAK RIDGE      LGT RAIN  73  69  87 VRB3      29.84F FOG              
$$

TNZ083-085-099-201800-
SOUTHEAST TENNESSEE
  
CITY           SKY/WX    TMP DP  RH WIND       PRES   REMARKS
CHATTANOOGA    LGT RAIN  77  67  71 S7        29.84S                  
$$

SKY/WX REPORTED AS FAIR MEANS FEW OR NO CLOUDS BELOW
12 THOUSAND FEET.